Mount Airy, NC

4:55 PM EST on December 09, 2019 (GMT -0500)
Mount Airy-Surry County

Weather History for KMWK - November, 2019

Change the Weather History Date:

Monday, November 11, 2019

  Actual Average (KINT) Record (KINT)
Temperature  
Mean Temperature 51 °F -  
Max Temperature 65 °F 58 °F 78 °F (2006)
Min Temperature 37 °F 39 °F 17 °F (1973)
Degree Days  
Heating Degree Days 14    
Growing Degree Days 1 (Base 50)    
Moisture  
Dew Point 41 °F    
Average Humidity 70    
Maximum Humidity 93    
Minimum Humidity 38    
Precipitation  
Precipitation 0.00 in - - ()
Sea Level Pressure  
Sea Level Pressure 30.06 in    
Wind  
Wind Speed 1 mph ()    
Max Wind Speed 8 mph    
Max Gust Speed -    
Visibility 10.0 miles    
Events      
Averages and records for this station are not official NWS values.
T = Trace of Precipitation, MM = Missing Value Source: Averaged Metar Reports

Daily Weather History Graph

Daily Weather History Graph

Search for Another Location

Airport or City:

Astronomy

Nov. 11, 2019 Rise Set
Actual Time 6:55 AM EST 5:16 PM EST
Civil Twilight 6:28 AM EST 5:43 PM EST
Nautical Twilight 5:57 AM EST 6:14 PM EST
Astronomical Twilight 5:26 AM EST 6:45 PM EST
Moon 5:08 PM EST (11/11) 5:48 AM EST (11/11)
Length of Visible Light 11h 15m
Length of Day
10h 21m
Waxing Gibbous, 99% of the Moon is Illuminated
Nov 11
Waxing Gibbous
Nov 12
Full
Nov 19
Last Quarter
Nov 26
New
Dec 4
First Quarter

Hourly Weather History & Observations

Time (EST) Temp. Dew Point Humidity Pressure Visibility Wind Dir Wind Speed Gust Speed Precip Events Conditions
12:15 AM 43.2 °F 39.0 °F 85% 30.14 in 10.0 mi Calm Calm - N/A   Clear
12:35 AM 41.0 °F 37.6 °F 88% 30.13 in 10.0 mi Calm Calm - N/A   Clear
12:55 AM 41.4 °F 38.3 °F 89% 30.13 in 10.0 mi Calm Calm - N/A   Clear
1:15 AM 40.1 °F 37.4 °F 90% 30.14 in 10.0 mi Calm Calm - N/A   Clear
1:55 AM 40.3 °F 37.4 °F 89% 30.13 in 10.0 mi Calm Calm - N/A   Clear
2:15 AM 40.1 °F 37.6 °F 91% 30.13 in 10.0 mi Calm Calm - N/A   Clear
2:35 AM 39.2 °F 36.7 °F 91% 30.13 in 10.0 mi Calm Calm - N/A   Clear
2:55 AM 39.9 °F 37.4 °F 91% 30.13 in 10.0 mi Calm Calm - N/A   Clear
3:15 AM 39.4 °F 36.9 °F 91% 30.12 in 10.0 mi Calm Calm - N/A   Clear
3:55 AM 39.0 °F 36.5 °F 91% 30.12 in 10.0 mi Calm Calm - N/A   Clear
4:15 AM 39.0 °F 36.9 °F 92% 30.11 in 10.0 mi Calm Calm - N/A   Clear
4:35 AM 38.3 °F 36.1 °F 92% 30.11 in 10.0 mi Calm Calm - N/A   Clear
4:55 AM 37.4 °F 35.1 °F 91% 30.12 in 10.0 mi Calm Calm - N/A   Clear
5:15 AM 37.4 °F 35.2 °F 92% 30.12 in 10.0 mi Calm Calm - N/A   Clear
5:35 AM 37.8 °F 35.6 °F 92% 30.12 in 10.0 mi Calm Calm - N/A   Clear
5:55 AM 37.4 °F 35.1 °F 91% 30.12 in 10.0 mi Calm Calm - N/A   Clear
6:15 AM 37.9 °F 35.8 °F 92% 30.13 in 10.0 mi Calm Calm - N/A   Clear
6:35 AM 38.3 °F 36.1 °F 92% 30.14 in 10.0 mi Calm Calm - N/A   Clear
6:55 AM 37.8 °F 35.4 °F 91% 30.14 in 10.0 mi Calm Calm - N/A   Clear
7:15 AM 38.1 °F 36.1 °F 93% 30.14 in 10.0 mi Calm Calm - N/A   Clear
7:35 AM 38.3 °F 36.0 °F 91% 30.15 in 10.0 mi Calm Calm - N/A   Clear
7:55 AM 40.6 °F 38.5 °F 92% 30.16 in 10.0 mi Calm Calm - N/A   Clear
8:15 AM 42.4 °F 39.9 °F 91% 30.15 in 10.0 mi Calm Calm - N/A   Clear
8:35 AM 42.1 °F 39.4 °F 90% 30.15 in 10.0 mi Calm Calm - N/A   Clear
8:55 AM 45.0 °F 42.1 °F 90% 30.15 in 10.0 mi Calm Calm - N/A   Clear
9:35 AM 49.8 °F 45.5 °F 85% 30.13 in 10.0 mi Calm Calm - N/A   Clear
9:55 AM 50.9 °F 44.2 °F 78% 30.13 in 10.0 mi SW 3.5 mph - N/A   Clear
10:15 AM 52.2 °F 43.9 °F 73% 30.13 in 10.0 mi SSW 4.6 mph - N/A   Clear
10:35 AM 54.0 °F 43.7 °F 68% 30.13 in 10.0 mi SW 3.5 mph - N/A   Clear
10:55 AM 55.6 °F 44.6 °F 67% 30.11 in 10.0 mi SSE 3.5 mph - N/A   Clear
11:15 AM 57.2 °F 44.6 °F 63% 30.10 in 10.0 mi SSE 3.5 mph - N/A   Clear
11:35 AM 58.8 °F 45.3 °F 61% 30.10 in 10.0 mi SSW 3.5 mph - N/A   Clear
11:55 AM 60.8 °F 46.2 °F 59% 30.09 in 10.0 mi SSE 4.6 mph - N/A   Clear
12:15 PM 61.0 °F 46.4 °F 59% 30.07 in 10.0 mi South 6.9 mph - N/A   Clear
12:35 PM 61.3 °F 46.0 °F 57% 30.07 in 10.0 mi SSE 6.9 mph - N/A   Clear
12:55 PM 61.9 °F 45.3 °F 55% 30.05 in 10.0 mi South 5.8 mph - N/A   Clear
1:15 PM 63.1 °F 45.1 °F 52% 30.04 in 10.0 mi SSW 8.1 mph - N/A   Clear
1:35 PM 63.9 °F 45.0 °F 50% 30.04 in 10.0 mi SSW 4.6 mph - N/A   Clear
1:55 PM 63.9 °F 45.0 °F 50% 30.03 in 10.0 mi SSW 4.6 mph - N/A   Clear
2:15 PM 63.9 °F 43.7 °F 48% 30.03 in 10.0 mi SSW 8.1 mph - N/A   Clear
2:35 PM 64.9 °F 41.9 °F 43% 30.02 in 10.0 mi SSW 4.6 mph - N/A   Clear
2:55 PM 65.1 °F 41.2 °F 42% 30.02 in 10.0 mi SSW 4.6 mph - N/A   Clear
3:15 PM 65.8 °F 40.8 °F 40% 30.00 in 10.0 mi SSW 8.1 mph - N/A   Clear
3:35 PM 65.5 °F 39.2 °F 38% 30.00 in 10.0 mi SW 6.9 mph - N/A   Clear
3:55 PM 64.8 °F 39.4 °F 39% 29.99 in 10.0 mi SSW 6.9 mph - N/A   Clear
4:15 PM 64.4 °F 40.5 °F 41% 29.99 in 10.0 mi SSW 4.6 mph - N/A   Clear
4:35 PM 63.9 °F 40.8 °F 43% 30.00 in 10.0 mi SSW 4.6 mph - N/A   Clear
4:55 PM 63.0 °F 41.0 °F 45% 29.99 in 10.0 mi SSW 3.5 mph - N/A   Clear
5:35 PM 61.0 °F 42.1 °F 50% 29.99 in 10.0 mi Calm Calm - N/A   Clear
5:55 PM 60.8 °F 42.8 °F 52% 29.99 in 10.0 mi SSW 3.5 mph - N/A   Clear
6:15 PM 59.9 °F 43.0 °F 54% 29.99 in 10.0 mi Calm Calm - N/A   Clear
6:35 PM 59.0 °F 42.8 °F 55% 29.99 in 10.0 mi Calm Calm - N/A   Clear
6:55 PM 59.0 °F 43.0 °F 55% 29.99 in 10.0 mi Calm Calm - N/A   Clear
7:15 PM 57.7 °F 43.2 °F 58% 29.99 in 10.0 mi Calm Calm - N/A   Clear
7:35 PM 57.6 °F 43.5 °F 59% 29.99 in 10.0 mi Calm Calm - N/A   Clear
7:55 PM 56.3 °F 43.7 °F 63% 29.99 in 10.0 mi Calm Calm - N/A   Clear
8:35 PM 55.9 °F 44.2 °F 65% 29.99 in 10.0 mi Calm Calm - N/A   Clear
8:55 PM 56.3 °F 44.6 °F 65% 29.99 in 10.0 mi SSW 3.5 mph - N/A   Clear
9:15 PM 56.3 °F 44.6 °F 65% 29.99 in 10.0 mi SSW 4.6 mph - N/A   Clear
9:35 PM 56.3 °F 44.6 °F 65% 29.99 in 10.0 mi SSW 3.5 mph - N/A   Clear
9:55 PM 55.8 °F 44.8 °F 67% 29.99 in 10.0 mi Calm Calm - N/A   Clear
10:15 PM 55.4 °F 44.8 °F 67% 29.97 in 10.0 mi Calm Calm - N/A   Clear
10:35 PM 55.0 °F 45.0 °F 69% 29.97 in 10.0 mi Calm Calm - N/A   Clear
10:55 PM 55.2 °F 45.1 °F 69% 29.96 in 10.0 mi Calm Calm - N/A   Scattered Clouds
11:15 PM 54.9 °F 45.5 °F 71% 29.96 in 10.0 mi Calm Calm - N/A   Scattered Clouds
11:35 PM 54.9 °F 45.5 °F 71% 29.96 in 10.0 mi Calm Calm - N/A   Mostly Cloudy
11:55 PM 54.9 °F 45.7 °F 71% 29.95 in 10.0 mi Calm Calm - N/A   Overcast